EW6774 Weather Reports


time (UTC)temp
C
wind
direction
speed
KPH
gust
KPH
rain 1hr
cm
rain 24hr
cm
rain mn
cm
humidity
%
barometer
mb
20260503194403 26 285 1.6 1.6 0.00 0.00 0.00 52 1012.1
20260503193903 26 261 1.6 3.2 0.00 0.00 0.00 50 1012.2
20260503193403 25 111 1.6 4.8 0.00 0.00 0.00 51 1012.2
20260503192904 25 74 0.0 4.8 0.00 0.00 0.00 51 1012.3
20260503192404 25 91 1.6 8.0 0.00 0.00 0.00 52 1012.4
20260503191903 25 143 1.6 4.8 0.00 0.00 0.00 51 1012.4
20260503191403 25 251 0.0 3.2 0.00 0.00 0.00 52 1012.5
20260503190903 25 327 1.6 4.8 0.00 0.00 0.00 53 1012.5
20260503190403 25 156 0.0 4.8 0.00 0.00 0.00 52 1012.6
20260503185903 25 282 0.0 3.2 0.00 0.00 0.00 54 1012.6
20260503185404 25 339 1.6 3.2 0.00 0.00 0.00 50 1012.7
20260503184903 24 126 0.0 1.6 0.00 0.00 0.00 55 1012.7
20260503184403 24 82 0.0 0.0 0.00 0.00 0.00 56 1012.7
20260503183904 24 272 0.0 3.2 0.00 0.00 0.00 56 1012.8
20260503183403 23 226 1.6 3.2 0.00 0.00 0.00 55 1012.9
20260503182403 23 262 1.6 1.6 0.00 0.00 0.00 58 1013.0
20260503181903 23 298 1.6 3.2 0.00 0.00 0.00 58 1013.0
20260503181404 23 120 0.0 4.8 0.00 0.00 0.00 56 1013.1
20260503180903 23 270 1.6 4.8 0.00 0.00 0.00 59 1013.1
20260503180403 23 132 0.0 3.2 0.00 0.00 0.00 56 1013.2
20260503175904 22 288 1.6 3.2 0.00 0.00 0.00 58 1013.2
20260503175404 22 263 0.0 3.2 0.00 0.00 0.00 55 1013.3
20260503174903 22 189 0.0 3.2 0.00 0.00 0.00 56 1013.3
20260503173903 22 334 0.0 0.0 0.00 0.00 0.00 57 1013.4
20260503173404 22 193 0.0 0.0 0.00 0.00 0.00 61 1013.4
20260503171904 21 101 0.0 0.0 0.00 0.00 0.00 60 1013.6
20260503171403 21 115 0.0 0.0 0.00 0.00 0.00 62 1013.6
20260503170403 20 83 0.0 1.6 0.00 0.00 0.00 64 1013.7
20260503150903 10 34 0.0 0.0 0.00 0.00 0.00 3 1014.3
20260503150404 10 34 0.0 0.0 0.00 0.00 0.00 3 1014.3
20260503131404 7 34 0.0 0.0 0.00 0.00 0.00 3 1014.1
20260503130904 7 34 0.0 0.0 0.00 0.00 0.00 3 1014.0
20260503130404 7 34 0.0 0.0 0.00 0.00 0.00 3 1014.0
20260503110403 8 34 0.0 0.0 0.00 0.00 0.00 3 1014.2
20260503090403 10 34 0.0 0.0 0.00 0.00 0.00 3 1014.3
20260503081402 10 34 0.0 0.0 0.00 0.00 0.00 14 1014.3
20260503080403 11 34 0.0 0.0 0.00 0.00 0.00 15 1014.3
20260503072903 11 34 0.0 0.0 0.00 0.00 0.00 27 1014.2
20260503072403 11 34 0.0 0.0 0.00 0.00 0.00 30 1014.1
20260503071903 11 34 0.0 0.0 0.00 0.00 0.00 33 1014.0
20260503071403 11 34 0.0 0.0 0.00 0.00 0.00 32 1014.0
20260503070902 11 34 0.0 0.0 0.00 0.00 0.00 35 1014.0
20260503070403 11 34 0.0 0.0 0.00 0.00 0.00 37 1014.1
20260503054903 12 34 0.0 0.0 0.00 0.00 0.00 62 1013.9
20260503054403 12 34 0.0 0.0 0.00 0.00 0.00 64 1013.9
20260503053903 12 34 0.0 0.0 0.00 0.00 0.00 66 1013.9
20260503053403 12 34 0.0 0.0 0.00 0.00 0.00 68 1013.9
20260503052905 13 34 0.0 0.0 0.00 0.00 0.00 69 1013.9
20260503052403 13 34 0.0 0.0 0.00 0.00 0.00 70 1013.9
20260503051902 13 34 0.0 0.0 0.00 0.00 0.00 70 1013.9
20260503050903 13 34 0.0 0.0 0.00 0.00 0.00 72 1013.8
20260503050402 13 34 0.0 0.0 0.00 0.00 0.00 72 1013.7
20260503045904 13 34 0.0 0.0 0.00 0.00 0.00 72 1013.7
20260503045403 13 34 0.0 0.0 0.00 0.00 0.00 72 1013.7
20260503044902 14 34 0.0 0.0 0.00 0.00 0.00 73 1013.7
20260503044403 14 34 0.0 0.0 0.00 0.00 0.00 73 1013.6
20260503043403 15 34 0.0 0.0 0.00 0.00 0.00 73 1013.5
20260503042903 15 34 0.0 0.0 0.00 0.00 0.00 73 1013.3
20260503042402 15 34 0.0 0.0 0.00 0.00 0.00 73 1013.3
20260503041902 15 34 0.0 0.0 0.00 0.00 0.00 73 1013.2
20260503041403 15 34 0.0 0.0 0.00 0.00 0.00 73 1013.2
20260503040903 16 34 0.0 0.0 0.00 0.00 0.00 72 1013.1
20260503035903 16 34 0.0 0.0 0.00 0.00 0.00 71 1013.0
20260503035404 16 34 0.0 0.0 0.00 0.00 0.00 71 1012.9
20260503034905 16 34 0.0 0.0 0.00 0.00 0.00 69 1012.9
20260503034404 17 34 0.0 0.0 0.00 0.00 0.00 68 1012.8
20260503033403 17 34 0.0 0.0 0.00 0.00 0.00 66 1012.5
20260503032902 18 34 0.0 0.0 0.00 0.00 0.00 64 1012.5
20260503032403 18 34 0.0 0.0 0.00 0.00 0.00 63 1012.4
20260503031903 18 34 0.0 0.0 0.00 0.00 0.00 59 1012.4
20260503031403 18 34 0.0 0.0 0.00 0.00 0.00 58 1012.3
20260503030903 19 34 0.0 0.0 0.00 0.00 0.00 57 1012.3
20260503030403 19 34 0.0 0.0 0.00 0.00 0.00 56 1012.2
20260503025903 19 34 0.0 0.0 0.00 0.00 0.00 56 1012.2
20260503025402 20 34 0.0 1.6 0.00 0.00 0.00 55 1012.2
20260503024904 20 34 0.0 1.6 0.00 0.00 0.00 54 1012.1
20260503024403 20 34 0.0 0.0 0.00 0.00 0.00 54 1012.2
20260503023403 20 63 0.0 0.0 0.00 0.00 0.00 52 1012.2
20260503022903 20 65 0.0 1.6 0.00 0.00 0.00 51 1012.1
20260503021903 21 39 0.0 0.0 0.00 0.00 0.00 50 1012.2
20260503021403 21 39 0.0 0.0 0.00 0.00 0.00 49 1012.1
20260503020902 21 39 0.0 0.0 0.00 0.00 0.00 49 1012.1
20260503020403 21 39 0.0 1.6 0.00 0.00 0.00 49 1012.1
20260503015904 21 41 0.0 3.2 0.00 0.00 0.00 48 1012.2
20260503015404 21 0 1.6 3.2 0.00 0.00 0.00 46 1012.2
20260503014903 22 338 0.0 1.6 0.00 0.00 0.00 47 1012.2
20260503014403 22 77 0.0 3.2 0.00 0.00 0.00 48 1012.3
20260503013403 22 321 1.6 4.8 0.00 0.00 0.00 49 1012.3
20260503012402 22 340 1.6 4.8 0.00 0.00 0.00 49 1012.3
20260503011403 23 359 3.2 12.9 0.00 0.00 0.00 50 1012.3
20260503010403 23 219 1.6 9.7 0.00 0.00 0.00 50 1012.3
20260503005403 25 307 1.6 11.3 0.00 0.00 0.00 48 1012.4
20260503004902 25 321 0.0 3.2 0.00 0.00 0.00 50 1012.4
20260503004403 25 321 1.6 3.2 0.00 0.00 0.00 49 1012.4
20260503003903 25 0 0.0 3.2 0.00 0.00 0.00 49 1012.5
20260503003403 25 303 0.0 1.6 0.00 0.00 0.00 50 1012.5
20260503002903 25 264 1.6 4.8 0.00 0.00 0.00 51 1012.4
20260503002403 25 358 0.0 3.2 0.00 0.00 0.00 50 1012.4
20260503001902 25 303 0.0 3.2 0.00 0.00 0.00 50 1012.5
20260503001403 25 306 0.0 3.2 0.00 0.00 0.00 51 1012.5
20260503000903 26 321 0.0 1.6 0.00 0.00 0.00 50 1012.5
20260503000402 26 12 0.0 8.0 0.00 0.00 0.00 54 1012.5
20260502235903 26 262 0.0 1.6 0.00 0.00 0.00 53 1012.6
20260502234903 25 145 0.0 3.2 0.00 0.00 0.00 54 1012.7
20260502234403 25 246 0.0 3.2 0.00 0.00 0.00 52 1012.7
20260502233904 25 31 0.0 3.2 0.00 0.00 0.00 52 1012.8
20260502233403 25 299 1.6 3.2 0.00 0.00 0.00 53 1012.8
20260502232402 25 25 1.6 3.2 0.00 0.00 0.00 53 1013.0
20260502231904 25 342 1.6 3.2 0.00 0.00 0.00 55 1012.9
20260502231403 25 21 1.6 4.8 0.00 0.00 0.00 54 1013.0
20260502230903 25 118 1.6 4.8 0.00 0.00 0.00 56 1013.1
20260502230404 25 24 3.2 4.8 0.00 0.00 0.00 55 1013.2
20260502225403 25 309 1.6 1.6 0.00 0.00 0.00 54 1013.3
20260502224403 25 239 0.0 3.2 0.00 0.00 0.00 58 1013.5
20260502223903 24 250 1.6 4.8 0.00 0.00 0.00 57 1013.6
20260502223404 24 238 1.6 4.8 0.00 0.00 0.00 57 1013.7
20260502222903 24 266 1.6 3.2 0.00 0.00 0.00 57 1013.7
20260502221903 23 231 1.6 4.8 0.00 0.00 0.00 57 1013.8
20260502221403 23 243 3.2 12.9 0.00 0.00 0.00 59 1013.8
20260502220903 24 226 1.6 3.2 0.00 0.00 0.00 57 1013.9
20260502220403 23 300 0.0 4.8 0.00 0.00 0.00 59 1014.0
20260502215903 23 115 3.2 4.8 0.00 0.00 0.00 55 1014.1
20260502215403 24 294 1.6 4.8 0.00 0.00 0.00 58 1014.1
20260502214903 23 278 0.0 3.2 0.00 0.00 0.00 59 1014.1
20260502214404 23 232 1.6 4.8 0.00 0.00 0.00 61 1014.2
20260502213903 23 152 3.2 8.0 0.00 0.00 0.00 61 1014.3
20260502213403 23 246 1.6 4.8 0.00 0.00 0.00 60 1014.3
20260502212903 23 266 1.6 8.0 0.00 0.00 0.00 61 1014.4
20260502212403 23 164 3.2 8.0 0.00 0.00 0.00 60 1014.5
20260502211903 23 280 1.6 3.2 0.00 0.00 0.00 59 1014.5
20260502211403 23 291 1.6 4.8 0.00 0.00 0.00 61 1014.5
20260502210903 23 290 1.6 3.2 0.00 0.00 0.00 61 1014.6
20260502210404 22 248 0.0 4.8 0.00 0.00 0.00 60 1014.6
20260502205404 23 89 3.2 4.8 0.00 0.00 0.00 60 1014.7
20260502204903 23 281 1.6 4.8 0.00 0.00 0.00 61 1014.8
20260502204403 23 271 1.6 4.8 0.00 0.00 0.00 61 1014.7
20260502203403 22 232 1.6 8.0 0.00 0.00 0.00 64 1014.7
20260502202404 22 142 3.2 9.7 0.00 0.00 0.00 64 1014.9
20260502201903 22 220 1.6 8.0 0.00 0.00 0.00 62 1015.0
20260502201403 22 252 1.6 4.8 0.00 0.00 0.00 62 1015.1
20260502200403 22 245 1.6 3.2 0.00 0.00 0.00 62 1015.2
20260502195905 22 269 1.6 3.2 0.00 0.00 0.00 64 1015.2
20260502194903 22 50 1.6 3.2 0.00 0.00 0.00 63 1015.3